sat.trackr.live / text

‹ back to catalog

STARLINK-4724

NORAD 53702 · 2022-107C

PAYLOAD ACTIVE UNKNOWN

§ Identity

Operator
Country
US
Launch date
2022-09-05
Launch site
AFETR
Launch vehicle
Mass (kg)
RCS (m²)

Purposes: comms

External: N2YO · Heavens-Above · Gunter

§ Orbital elements

Epoch: 2026-05-24T23:36:29.630592Z

Period
95.44 min
Inclination
53.2129°
Eccentricity
0.0001116
Mean motion
15.08842154 rev/d
Perigee alt
539.0 km
Apogee alt
540.5 km
Semi-major
6,917.9 km
B*
-8.7974e-5
RAAN
246.5240°
Arg perigee
90.7843°
Mean anomaly
269.3277°
Rev number
20,661

§ Raw data

STARLINK-47241 53702U 22107C   26144.98367628 -.00001688  00000+0 -87974-4 0  99982 53702  53.2129 246.5240 0001116  90.7843 269.3277 15.08842154206613

JSON: /api/v1/satellites/53702 · /tle

For live sub-satellite position, see the globe view (requires WebGL).

§ Visibility from observer

Set your observer location to see the next 7 days of passes ≥ 10°. The values pass through the URL so the page stays shareable.

No JS? Fill the form by hand. The geolocation button needs JavaScript.